User: anonymous   Login
Location: Unspecified
(0.0000°N, 0.0000°E)
Time: 10:57:29
(UTC+00:00)
Language:

AO-91 - Orbit

View from above orbital plane
View from above orbital plane
View from above satellite
View from above satellite

Ground track
Ground track

The orbit data is extracted from the following two-line orbital elements,

1 43017U 17073E   22276.14881239  .00005013  00000-0  37542-3 0  9991
2 43017  97.6584 165.9075 0245765 194.5973 164.8056 14.82121224263060
Epoch (UTC): 03 October 2022 03:34:17
Eccentricity: 0.0245765
inclination: 97.6584°
perigee height: 450 km
apogee height: 794 km
right ascension of ascending node: 165.9075°
argument of perigee: 194.5973°
revolutions per day: 14.82121224
mean anomaly at epoch: 164.8056°
orbit number at epoch: 26306

The dashed part of the orbit path shows where the satellite is in the earth's shadow,  

DLR